Voltar ao catálogo

PSLV R/B

AtivoSSO
NORAD 23828·ROCKET BODY·🇮🇳 India

Lançado Mar 21, 1996 de Satish Dhawan Space Centre

Loading…

Próximas Passagens (próximas 24 horas)

TLE

AtualizadoSource: Space-Track

Época: Sep 14, 2026, 07:05 UTC

1 23828U 96017B   26257.29515457  .00000022  00000-0  30619-4 0  9993
2 23828  99.0452 276.5622 0034507  98.7240 261.7847 14.22698287581753

Acompanhe PSLV R/B em tempo real com AllMySat

Download on the App Store